Home > Weather > Chur > Past weeks

Flag for Switzerland Past Weather in Chur, Graubünden, Switzerland — Yesterday and Last 2 Weeks

Now
65 °F

Overcast.


Feels Like: 65 °F
Forecast: 61 / 70 °F
Wind: 7 mph from Northeast

Location: Chur

Current Time: Jun 25, 2016 at 9:38:29 PM

Latest Report: Jun 25, 2016 at 8:00 PM


Visibility: 9 mi

Pressure: 29.98 "Hg (27.97 "Hg at 592m altitude)

Humidity: 79%

Dew Point: 58 °F

Location of ChurLocation

Past Weather in Chur — Graph

°F

Chur Temperature Yesterday

Maximum temperature yesterday: 88 °F (at 3:00 PM)
Minimum temperature yesterday: 63 °F (at 7:00 AM)
Average temperature yesterday: 76 °F

High & Low Weather Summary for the Past Weeks

 TemperatureHumidityPressure
High88 °F (Jun 23, 4:00 PM)97% (Jun 12, 2:00 AM)30.31 "Hg (Jun 12, 2:00 AM)
Low44 °F (Jun 17, 6:00 AM)35% (Jun 23, 4:00 PM)29.54 "Hg (Jun 14, 1:00 PM)
Average62 °F76%29.93 "Hg
* Reported Jun 10 8:00 PM — Jun 25 8:00 PM, Chur, Weather by CustomWeather, © 2016

Note: Actual official high and low records may vary slightly from our data, if they occured in-between our weather recording intervals... More about our weather records

Advertising

Chur Weather History for the Previous 24 Hours

Scroll right to see more
 ConditionsComfort  
Time TempWeatherWind HumidityBarometerVisibility
8:00 PM
Sat, Jun 25
65 °FOvercast.7 mph79%29.98 "Hg9 mi
7:00 PM65 °FMild.7 mph80%29.98 "HgN/A
6:00 PM66 °FMild.13 mph80%29.96 "HgN/A
5:00 PM67 °FOvercast.9 mph86%29.97 "Hg12 mi
4:00 PM73 °FMild.1 mph54%29.88 "HgN/A
3:00 PM68 °FMild.1 mph80%29.93 "HgN/A
2:00 PM67 °FOvercast.12 mph77%29.95 "Hg7 mi
1:00 PM68 °FMild.13 mph74%29.96 "HgN/A
12:00 PM74 °FMild.2 mph61%29.90 "HgN/A
11:00 AM72 °FMild.2 mph67%29.92 "HgN/A
10:00 AM68 °FMild.3 mph80%29.95 "HgN/A
9:00 AM65 °FMild.3 mph91%29.96 "HgN/A
8:00 AM64 °FLight rain. Overcast.3 mph93%30.00 "Hg5 mi
7:00 AM65 °FMild.2 mph88%29.99 "HgN/A
6:00 AM62 °FMild.2 mph91%29.98 "HgN/A
5:00 AM63 °FPassing clouds.5 mph89%29.96 "Hg9 mi
4:00 AM64 °FMild.2 mph88%29.95 "HgN/A
3:00 AM64 °FMild.No wind91%29.97 "HgN/A
2:00 AM65 °FMild.1 mph88%29.98 "HgN/A
1:00 AM67 °FMild.2 mph82%30.00 "HgN/A
12:00 AM69 °FMild.2 mph82%29.99 "HgN/A
11:00 PM
Fri, Jun 24
69 °FMild.2 mph87%29.99 "HgN/A
10:00 PM72 °FMild.3 mph74%30.00 "HgN/A
9:00 PM73 °FMild.2 mph74%29.97 "HgN/A
Weather by CustomWeather, © 2016

See weather overviewHow to use our weather pages